User: anonymous   Login
Location: *
(50.9167°S, 179.4000°W)
Time: 16:27:09
(UTC+00:00)
Language:

Cosmos 468 Rocket - Orbit

View from above orbital plane
View from above orbital plane
View from above satellite
View from above satellite

Ground track
Ground track

The orbit data is extracted from the following two-line orbital elements,

1  5707U 71114B   24149.21955074  .00000394  00000-0  13393-3 0  9994
2  5707  74.0276  83.7722 0025710 252.6789 107.1553 14.39660228747720
Epoch (UTC): 28 May 2024 05:16:09
Eccentricity: 0.0025710
inclination: 74.0276°
perigee height: 741 km
apogee height: 778 km
right ascension of ascending node: 83.7722°
argument of perigee: 252.6789°
revolutions per day: 14.39660228
mean anomaly at epoch: 107.1553°
orbit number at epoch: 74772

The dashed part of the orbit path shows where the satellite is in the earth's shadow,  

DLR